Flag for U.S.A. Weather past 2 weeks in Knoxville, Tennessee, U.S.A.

Now
79 °F

Passing clouds.


Feels Like: 80 °F
Forecast: 64 / 87 °F
Wind: 9 mph from North

Location: McGhee Tyson Airport

Current Time: Jul 31, 2015 at 10:01:40 PM

Latest Report: Jul 31, 2015 at 8:53 PM


Visibility: 10 mi

Pressure: 29.97 "Hg

Humidity: 50%

Dew point: 59 °F

Location of KnoxvilleLocation

Historic Weather in Knoxville — Graph

°F

Knoxville temperature yesterday

Maximum temperature yesterday: 90 °F (at 2:53 PM)
Minimum temperature yesterday: 77 °F (at 6:53 AM)
Average temperature yesterday: 82 °F

Past Weeks' High & Low Weather Summary

 TemperatureHumidityPressure
High92 °F (Jul 29, 4:53 PM)100% (Jul 24, 2:53 AM)30.05 "Hg (Jul 24, 2:53 AM)
Low68 °F (Jul 31, 6:53 AM)37% (Jul 31, 3:53 PM)29.79 "Hg (Jul 21, 5:53 PM)
Average79 °F75%29.95 "Hg
* Reported Jul 16 8:53 PM — Jul 31 8:53 PM, Knoxville, Weather by CustomWeather, © 2015

Note: Actual official high and low records may vary slightly from our data, if they occured in-between our weather recording intervals... More about our weather records

Advertising

Knoxville weather history for previous 24 hours

 ConditionsComfort  
Time TempWeatherWind HumidityBarometerVisibility
8:53 PM
Fri, Jul 31
79 °FPassing clouds.9 mph50%29.97 "Hg10 mi
7:53 PM82 °FPassing clouds.7 mph44%29.96 "Hg10 mi
5:53 PM85 °FPassing clouds.10 mph40%29.95 "Hg10 mi
4:53 PM87 °FPassing clouds.12 mph37%29.96 "Hg10 mi
3:53 PM86 °FPassing clouds.10 mph37%29.98 "Hg10 mi
2:53 PM85 °FPassing clouds.6 mph40%30.00 "Hg10 mi
1:53 PM84 °FPassing clouds.8 mph41%30.01 "Hg10 mi
12:53 PM83 °FScattered clouds.10 mph44%30.03 "Hg10 mi
11:53 AM82 °FScattered clouds.9 mph46%30.03 "Hg10 mi
10:53 AM80 °FScattered clouds.12 mph52%30.03 "Hg10 mi
9:53 AM77 °FScattered clouds.10 mph58%30.04 "Hg10 mi
8:53 AM74 °FScattered clouds.8 mph64%30.03 "Hg10 mi
7:53 AM71 °FScattered clouds.8 mph71%30.02 "Hg10 mi
6:53 AM68 °FPassing clouds.5 mph78%30.01 "Hg10 mi
5:53 AM70 °FPassing clouds.6 mph76%30.00 "Hg10 mi
4:53 AM70 °FClear.7 mph76%30.00 "Hg10 mi
3:53 AM71 °FPassing clouds.6 mph73%29.99 "Hg10 mi
2:53 AM72 °FPassing clouds.7 mph71%30.00 "Hg10 mi
1:53 AM74 °FPassing clouds.5 mph71%30.01 "Hg10 mi
12:53 AM76 °FOvercast.5 mph64%30.02 "Hg10 mi
11:53 PM
Thu, Jul 30
77 °FPassing clouds.3 mph62%30.02 "Hg10 mi
10:53 PM77 °FPassing clouds.8 mph62%30.01 "Hg10 mi
Weather by CustomWeather, © 2015

See weather overviewHow to use our weather pages